owner,sensor,date,latitude,longitude,air_pressure(mBar),qcFlag 
TABS,ioos:station:wmo:42044:1,2019-11-01T03:30:00Z,26.1914,-97.0507,1028.4,11111222 
TABS,ioos:station:wmo:42044:1,2019-11-01T04:30:00Z,26.1914,-97.0507,1028.23,11111222 
TABS,ioos:station:wmo:42044:1,2019-11-01T06:00:00Z,26.1914,-97.0507,1027.24,11111222 
TABS,ioos:station:wmo:42044:1,2019-11-01T07:00:00Z,26.1914,-97.0507,1026.93,11111222 
TABS,ioos:station:wmo:42044:1,2019-11-01T08:00:00Z,26.1914,-97.0507,1026.25,11111222 
TABS,ioos:station:wmo:42044:1,2019-11-01T09:00:00Z,26.1914,-97.0507,1026.1,11111222 
TABS,ioos:station:wmo:42044:1,2019-11-01T10:00:00Z,26.1914,-97.0507,1026.26,11111222 
TABS,ioos:station:wmo:42044:1,2019-11-01T11:00:00Z,26.1914,-97.0507,1026.33,11111222 
TABS,ioos:station:wmo:42044:1,2019-11-01T12:00:00Z,26.1914,-97.0507,1026.29,11111222 
TABS,ioos:station:wmo:42044:1,2019-11-01T13:00:00Z,26.1914,-97.0507,1026.39,11111222 
TABS,ioos:station:wmo:42044:1,2019-11-01T15:00:00Z,26.1914,-97.0507,1026.45,11111222 
TABS,ioos:station:wmo:42044:1,2019-11-01T16:00:00Z,26.1914,-97.0507,1026.44,11111222 
TABS,ioos:station:wmo:42044:1,2019-11-01T17:00:00Z,26.1914,-97.0507,1025.66,11111222 
TABS,ioos:station:wmo:42044:1,2019-11-01T17:30:00Z,26.1914,-97.0507,1025.35,11111222 
TABS,ioos:station:wmo:42044:1,2019-11-01T19:00:00Z,26.1914,-97.0507,1023.58,11111222 
TABS,ioos:station:wmo:42044:1,2019-11-01T20:00:00Z,26.1914,-97.0507,1022.92,11111222 
TABS,ioos:station:wmo:42044:1,2019-11-01T21:00:00Z,26.1914,-97.0507,1022.24,11111222 
TABS,ioos:station:wmo:42044:1,2019-11-01T22:00:00Z,26.1914,-97.0507,1022.04,11111222 
TABS,ioos:station:wmo:42044:1,2019-11-01T23:00:00Z,26.1914,-97.0507,1022.17,11111222 
TABS,ioos:station:wmo:42044:1,2019-11-01T23:30:00Z,26.1914,-97.0507,1022.27,11111222 
TABS,ioos:station:wmo:42044:1,2019-11-02T04:00:00Z,26.1914,-97.0507,1022.89,11111222 
TABS,ioos:station:wmo:42044:1,2019-11-02T05:00:00Z,26.1914,-97.0507,1022.71,11111222 
TABS,ioos:station:wmo:42044:1,2019-11-02T06:00:00Z,26.1914,-97.0507,1022.58,11111222 
TABS,ioos:station:wmo:42044:1,2019-11-02T07:30:00Z,26.1914,-97.0507,1022.6,11111222 
TABS,ioos:station:wmo:42044:1,2019-11-02T09:00:00Z,26.1914,-97.0507,1022.67,11111222 
TABS,ioos:station:wmo:42044:1,2019-11-02T10:00:00Z,26.1914,-97.0507,1023.24,11111222 
TABS,ioos:station:wmo:42044:1,2019-11-02T11:00:00Z,26.1914,-97.0507,1023.68,11111222 
TABS,ioos:station:wmo:42044:1,2019-11-02T13:00:00Z,26.1914,-97.0507,1024.66,11111222 
TABS,ioos:station:wmo:42044:1,2019-11-02T14:00:00Z,26.1914,-97.0507,1025.31,11111222 
TABS,ioos:station:wmo:42044:1,2019-11-02T15:00:00Z,26.1914,-97.0507,1025.88,11111222 
TABS,ioos:station:wmo:42044:1,2019-11-02T16:00:00Z,26.1914,-97.0507,1026.42,11111222 
TABS,ioos:station:wmo:42044:1,2019-11-02T17:00:00Z,26.1914,-97.0507,1026.34,11111222 
TABS,ioos:station:wmo:42044:1,2019-11-02T18:00:00Z,26.1914,-97.0507,1025.91,11111222 
TABS,ioos:station:wmo:42044:1,2019-11-02T19:00:00Z,26.1914,-97.0507,1025.21,11111222 
TABS,ioos:station:wmo:42044:1,2019-11-02T21:00:00Z,26.1914,-97.0507,1024.04,11111222 
TABS,ioos:station:wmo:42044:1,2019-11-02T23:00:00Z,26.1914,-97.0507,1024.07,11111222 
TABS,ioos:station:wmo:42044:1,2019-11-02T23:30:00Z,26.1914,-97.0507,1024.04,11111222 
TABS,ioos:station:wmo:42044:1,2019-11-03T04:00:00Z,26.1914,-97.0507,1024.71,11111222 
TABS,ioos:station:wmo:42044:1,2019-11-03T05:00:00Z,26.1914,-97.0507,1024.51,11111222 
TABS,ioos:station:wmo:42044:1,2019-11-03T06:00:00Z,26.1914,-97.0507,1024.19,11111222 
TABS,ioos:station:wmo:42044:1,2019-11-03T07:00:00Z,26.1914,-97.0507,1023.4,11111222 
TABS,ioos:station:wmo:42044:1,2019-11-03T08:00:00Z,26.1914,-97.0507,1023.37,11111222 
TABS,ioos:station:wmo:42044:1,2019-11-03T09:00:00Z,26.1914,-97.0507,1022.72,11111222 
TABS,ioos:station:wmo:42044:1,2019-11-03T10:00:00Z,26.1914,-97.0507,1022.5,11111222 
TABS,ioos:station:wmo:42044:1,2019-11-03T11:00:00Z,26.1914,-97.0507,1022.36,11111222 
TABS,ioos:station:wmo:42044:1,2019-11-03T12:00:00Z,26.1914,-97.0507,1022.28,11111222 
TABS,ioos:station:wmo:42044:1,2019-11-03T14:00:00Z,26.1914,-97.0507,1022.65,11111222 
TABS,ioos:station:wmo:42044:1,2019-11-03T15:00:00Z,26.1914,-97.0507,1022.67,11111222 
TABS,ioos:station:wmo:42044:1,2019-11-03T16:00:00Z,26.1914,-97.0507,1022.58,11111222 
TABS,ioos:station:wmo:42044:1,2019-11-03T17:00:00Z,26.1914,-97.0507,1022.15,11111222 
TABS,ioos:station:wmo:42044:1,2019-11-03T18:00:00Z,26.1914,-97.0507,1021.03,11111222 
TABS,ioos:station:wmo:42044:1,2019-11-03T19:00:00Z,26.1914,-97.0507,1019.77,11111222 
TABS,ioos:station:wmo:42044:1,2019-11-03T21:00:00Z,26.1914,-97.0507,1018.35,11111222 
TABS,ioos:station:wmo:42044:1,2019-11-03T22:00:00Z,26.1914,-97.0507,1018.13,11111222 
TABS,ioos:station:wmo:42044:1,2019-11-03T23:30:00Z,26.1914,-97.0507,1017.79,11111222 
TABS,ioos:station:wmo:42044:1,2019-11-04T04:30:00Z,26.1914,-97.0507,1017.28,11111222 
TABS,ioos:station:wmo:42044:1,2019-11-04T15:30:00Z,26.1914,-97.0507,1016.95,11111222 
TABS,ioos:station:wmo:42044:1,2019-11-04T16:00:00Z,26.1914,-97.0507,1016.94,11111222 
TABS,ioos:station:wmo:42044:1,2019-11-04T17:00:00Z,26.1914,-97.0507,1016.81,11111222 
TABS,ioos:station:wmo:42044:1,2019-11-04T18:00:00Z,26.1914,-97.0507,1015.87,11111222 
TABS,ioos:station:wmo:42044:1,2019-11-04T19:00:00Z,26.1914,-97.0507,1014.87,11111222 
TABS,ioos:station:wmo:42044:1,2019-11-04T20:00:00Z,26.1914,-97.0507,1014.09,11111222 
TABS,ioos:station:wmo:42044:1,2019-11-04T21:00:00Z,26.1914,-97.0507,1013.89,11111222 
TABS,ioos:station:wmo:42044:1,2019-11-04T21:30:00Z,26.1914,-97.0507,1013.87,11111222 
TABS,ioos:station:wmo:42044:1,2019-11-04T23:00:00Z,26.1914,-97.0507,1013.78,11111222 
TABS,ioos:station:wmo:42044:1,2019-11-04T23:30:00Z,26.1914,-97.0507,1013.93,11111222 
TABS,ioos:station:wmo:42044:1,2019-11-05T05:00:00Z,26.1914,-97.0507,1016.28,11111222 
TABS,ioos:station:wmo:42044:1,2019-11-05T06:00:00Z,26.1914,-97.0507,1015.74,11111222 
TABS,ioos:station:wmo:42044:1,2019-11-05T07:00:00Z,26.1914,-97.0507,1015.38,11111222 
TABS,ioos:station:wmo:42044:1,2019-11-05T08:00:00Z,26.1914,-97.0507,1015.22,11111222 
TABS,ioos:station:wmo:42044:1,2019-11-05T09:00:00Z,26.1914,-97.0507,1015.34,11111222 
TABS,ioos:station:wmo:42044:1,2019-11-05T10:00:00Z,26.1914,-97.0507,1015.52,11111222 
TABS,ioos:station:wmo:42044:1,2019-11-05T11:00:00Z,26.1914,-97.0507,1015.97,11111222 
TABS,ioos:station:wmo:42044:1,2019-11-05T12:00:00Z,26.1914,-97.0507,1016.77,11111222 
TABS,ioos:station:wmo:42044:1,2019-11-05T13:00:00Z,26.1914,-97.0507,1017.5,11111222 
TABS,ioos:station:wmo:42044:1,2019-11-05T14:00:00Z,26.1914,-97.0507,1018.18,11111222 
TABS,ioos:station:wmo:42044:1,2019-11-05T15:00:00Z,26.1914,-97.0507,1018.89,11111222 
TABS,ioos:station:wmo:42044:1,2019-11-05T15:30:00Z,26.1914,-97.0507,1019.19,11111222 
TABS,ioos:station:wmo:42044:1,2019-11-05T17:00:00Z,26.1914,-97.0507,1019.06,11111222 
TABS,ioos:station:wmo:42044:1,2019-11-05T18:00:00Z,26.1914,-97.0507,1018.45,11111222 
TABS,ioos:station:wmo:42044:1,2019-11-05T19:00:00Z,26.1914,-97.0507,1018.16,11111222 
TABS,ioos:station:wmo:42044:1,2019-11-05T20:00:00Z,26.1914,-97.0507,1017.71,11111222 
TABS,ioos:station:wmo:42044:1,2019-11-05T21:00:00Z,26.1914,-97.0507,1017.67,11111222 
TABS,ioos:station:wmo:42044:1,2019-11-05T22:00:00Z,26.1914,-97.0507,1018.07,11111222 
TABS,ioos:station:wmo:42044:1,2019-11-05T23:00:00Z,26.1914,-97.0507,1017.93,11111222 
TABS,ioos:station:wmo:42044:1,2019-11-05T23:30:00Z,26.1914,-97.0507,1018.26,11111222 
TABS,ioos:station:wmo:42044:1,2019-11-06T04:30:00Z,26.1914,-97.0507,1020.6,11111222 
TABS,ioos:station:wmo:42044:1,2019-11-06T05:30:00Z,26.1914,-97.0507,1020.28,11111222 
TABS,ioos:station:wmo:42044:1,2019-11-06T07:00:00Z,26.1914,-97.0507,1019.8,11111222 
TABS,ioos:station:wmo:42044:1,2019-11-06T08:00:00Z,26.1914,-97.0507,1019.56,11111222 
TABS,ioos:station:wmo:42044:1,2019-11-06T09:00:00Z,26.1914,-97.0507,1019.41,11111222 
TABS,ioos:station:wmo:42044:1,2019-11-06T10:00:00Z,26.1914,-97.0507,1019.61,11111222 
TABS,ioos:station:wmo:42044:1,2019-11-06T11:00:00Z,26.1914,-97.0507,1019.82,11111222 
TABS,ioos:station:wmo:42044:1,2019-11-06T12:30:00Z,26.1914,-97.0507,1020.29,11111222 
TABS,ioos:station:wmo:42044:1,2019-11-06T13:30:00Z,26.1914,-97.0507,1020.81,11111222 
TABS,ioos:station:wmo:42044:1,2019-11-06T14:30:00Z,26.1914,-97.0507,1021.28,11111222 
TABS,ioos:station:wmo:42044:1,2019-11-06T16:00:00Z,26.1914,-97.0507,1021.45,11111222 
TABS,ioos:station:wmo:42044:1,2019-11-06T17:00:00Z,26.1914,-97.0507,1020.95,11111222 
TABS,ioos:station:wmo:42044:1,2019-11-06T20:00:00Z,26.1914,-97.0507,1017.98,11111222 
TABS,ioos:station:wmo:42044:1,2019-11-06T21:00:00Z,26.1914,-97.0507,1017.6,11111222 
TABS,ioos:station:wmo:42044:1,2019-11-06T22:00:00Z,26.1914,-97.0507,1017.44,11111222 
TABS,ioos:station:wmo:42044:1,2019-11-06T23:00:00Z,26.1914,-97.0507,1017.73,11111222 
TABS,ioos:station:wmo:42044:1,2019-11-06T23:30:00Z,26.1914,-97.0507,1017.63,11111222 
TABS,ioos:station:wmo:42044:1,2019-11-07T04:00:00Z,26.1914,-97.0507,1017.79,11111222 
TABS,ioos:station:wmo:42044:1,2019-11-07T06:00:00Z,26.1914,-97.0507,1017.1,11111222 
TABS,ioos:station:wmo:42044:1,2019-11-07T07:00:00Z,26.1914,-97.0507,1016.58,11111222 
TABS,ioos:station:wmo:42044:1,2019-11-07T08:00:00Z,26.1914,-97.0507,1016.33,11111222 
TABS,ioos:station:wmo:42044:1,2019-11-07T09:00:00Z,26.1914,-97.0507,1016.18,11111222 
TABS,ioos:station:wmo:42044:1,2019-11-07T10:00:00Z,26.1914,-97.0507,1015.72,11111222 
TABS,ioos:station:wmo:42044:1,2019-11-07T11:00:00Z,26.1914,-97.0507,1015.78,11111222 
TABS,ioos:station:wmo:42044:1,2019-11-07T13:00:00Z,26.1914,-97.0507,1016.65,11111222 
TABS,ioos:station:wmo:42044:1,2019-11-07T13:30:00Z,26.1914,-97.0507,1017.05,11111222 
TABS,ioos:station:wmo:42044:1,2019-11-07T14:30:00Z,26.1914,-97.0507,1017.81,11111222 
TABS,ioos:station:wmo:42044:1,2019-11-07T15:30:00Z,26.1914,-97.0507,1018.21,11111222 
TABS,ioos:station:wmo:42044:1,2019-11-07T17:00:00Z,26.1914,-97.0507,1017.86,11111222 
TABS,ioos:station:wmo:42044:1,2019-11-07T18:00:00Z,26.1914,-97.0507,1017.03,11111222 
TABS,ioos:station:wmo:42044:1,2019-11-07T20:30:00Z,26.1914,-97.0507,1015.51,11111222 
TABS,ioos:station:wmo:42044:1,2019-11-07T22:00:00Z,26.1914,-97.0507,1015.29,11111222 
TABS,ioos:station:wmo:42044:1,2019-11-07T23:00:00Z,26.1914,-97.0507,1015.95,11111222 
TABS,ioos:station:wmo:42044:1,2019-11-07T23:30:00Z,26.1914,-97.0507,1016.32,11111222 
TABS,ioos:station:wmo:42044:1,2019-11-08T05:00:00Z,26.1914,-97.0507,1019.21,11111222 
TABS,ioos:station:wmo:42044:1,2019-11-08T06:00:00Z,26.1914,-97.0507,1019.32,11111222 
TABS,ioos:station:wmo:42044:1,2019-11-08T07:00:00Z,26.1914,-97.0507,1018.98,11111222 
TABS,ioos:station:wmo:42044:1,2019-11-08T08:00:00Z,26.1914,-97.0507,1019.29,11111222 
TABS,ioos:station:wmo:42044:1,2019-11-08T10:00:00Z,26.1914,-97.0507,1020.35,11111222 
TABS,ioos:station:wmo:42044:1,2019-11-08T11:00:00Z,26.1914,-97.0507,1020.9,11111222 
TABS,ioos:station:wmo:42044:1,2019-11-08T12:00:00Z,26.1914,-97.0507,1022.29,11111222 
TABS,ioos:station:wmo:42044:1,2019-11-08T13:00:00Z,26.1914,-97.0507,1022.59,11111222 
TABS,ioos:station:wmo:42044:1,2019-11-08T14:00:00Z,26.1914,-97.0507,1023.18,11111222 
TABS,ioos:station:wmo:42044:1,2019-11-08T14:30:00Z,26.1914,-97.0507,1023.58,11111222 
TABS,ioos:station:wmo:42044:1,2019-11-08T15:30:00Z,26.1914,-97.0507,1024.47,11111222 
TABS,ioos:station:wmo:42044:1,2019-11-08T17:00:00Z,26.1914,-97.0507,1023.98,11111222 
TABS,ioos:station:wmo:42044:1,2019-11-08T18:00:00Z,26.1914,-97.0507,1023.21,11111222 
TABS,ioos:station:wmo:42044:1,2019-11-08T20:30:00Z,26.1914,-97.0507,1022.82,11111222 
TABS,ioos:station:wmo:42044:1,2019-11-08T21:30:00Z,26.1914,-97.0507,1022.63,11111222 
TABS,ioos:station:wmo:42044:1,2019-11-08T23:00:00Z,26.1914,-97.0507,1023.52,11111222 
TABS,ioos:station:wmo:42044:1,2019-11-08T23:30:00Z,26.1914,-97.0507,1023.3,11111222 
TABS,ioos:station:wmo:42044:1,2019-11-09T05:00:00Z,26.1914,-97.0507,1025.18,11111222 
TABS,ioos:station:wmo:42044:1,2019-11-09T06:00:00Z,26.1914,-97.0507,1025.17,11111222 
TABS,ioos:station:wmo:42044:1,2019-11-09T07:00:00Z,26.1914,-97.0507,1024.36,11111222 
TABS,ioos:station:wmo:42044:1,2019-11-09T08:00:00Z,26.1914,-97.0507,1024.44,11111222 
TABS,ioos:station:wmo:42044:1,2019-11-09T09:00:00Z,26.1914,-97.0507,1023.15,11111222 
TABS,ioos:station:wmo:42044:1,2019-11-09T10:00:00Z,26.1914,-97.0507,1023.43,11111222 
TABS,ioos:station:wmo:42044:1,2019-11-09T12:00:00Z,26.1914,-97.0507,1023.58,11111222 
TABS,ioos:station:wmo:42044:1,2019-11-09T13:00:00Z,26.1914,-97.0507,1024.66,11111222 
TABS,ioos:station:wmo:42044:1,2019-11-09T14:00:00Z,26.1914,-97.0507,1024.41,11111222 
TABS,ioos:station:wmo:42044:1,2019-11-09T15:00:00Z,26.1914,-97.0507,1025.06,11111222 
TABS,ioos:station:wmo:42044:1,2019-11-09T16:00:00Z,26.1914,-97.0507,1025.1,11111222 
TABS,ioos:station:wmo:42044:1,2019-11-09T17:00:00Z,26.1914,-97.0507,1024.36,11111222 
TABS,ioos:station:wmo:42044:1,2019-11-09T18:00:00Z,26.1914,-97.0507,1024.17,11111222 
TABS,ioos:station:wmo:42044:1,2019-11-09T19:00:00Z,26.1914,-97.0507,1023.01,11111222 
TABS,ioos:station:wmo:42044:1,2019-11-09T20:00:00Z,26.1914,-97.0507,1022.24,11111222 
TABS,ioos:station:wmo:42044:1,2019-11-09T21:00:00Z,26.1914,-97.0507,1021.48,11111222 
TABS,ioos:station:wmo:42044:1,2019-11-09T22:00:00Z,26.1914,-97.0507,1021.43,11111222 
TABS,ioos:station:wmo:42044:1,2019-11-09T23:30:00Z,26.1914,-97.0507,1021.54,11111222 
TABS,ioos:station:wmo:42044:1,2019-11-10T04:30:00Z,26.1914,-97.0507,1021.73,11111222 
TABS,ioos:station:wmo:42044:1,2019-11-10T06:00:00Z,26.1914,-97.0507,1021.32,11111222 
TABS,ioos:station:wmo:42044:1,2019-11-10T07:00:00Z,26.1914,-97.0507,1020.73,11111222 
TABS,ioos:station:wmo:42044:1,2019-11-10T08:00:00Z,26.1914,-97.0507,1020.28,11111222 
TABS,ioos:station:wmo:42044:1,2019-11-10T09:00:00Z,26.1914,-97.0507,1019.94,11111222 
TABS,ioos:station:wmo:42044:1,2019-11-10T10:00:00Z,26.1914,-97.0507,1019.99,11111222 
TABS,ioos:station:wmo:42044:1,2019-11-10T10:30:00Z,26.1914,-97.0507,1019.88,11111222 
TABS,ioos:station:wmo:42044:1,2019-11-10T11:30:00Z,26.1914,-97.0507,1019.75,11111222 
TABS,ioos:station:wmo:42044:1,2019-11-10T13:00:00Z,26.1914,-97.0507,1020.1,11111222 
TABS,ioos:station:wmo:42044:1,2019-11-10T14:00:00Z,26.1914,-97.0507,1020.68,11111222 
TABS,ioos:station:wmo:42044:1,2019-11-10T15:00:00Z,26.1914,-97.0507,1020.93,11111222 
TABS,ioos:station:wmo:42044:1,2019-11-10T16:00:00Z,26.1914,-97.0507,1020.73,11111222 
TABS,ioos:station:wmo:42044:1,2019-11-10T17:00:00Z,26.1914,-97.0507,1020.15,11111222 
TABS,ioos:station:wmo:42044:1,2019-11-10T18:00:00Z,26.1914,-97.0507,1018.69,11111222 
TABS,ioos:station:wmo:42044:1,2019-11-10T18:30:00Z,26.1914,-97.0507,1018.09,11111222 
TABS,ioos:station:wmo:42044:1,2019-11-10T20:00:00Z,26.1914,-97.0507,1017.02,11111222 
TABS,ioos:station:wmo:42044:1,2019-11-10T21:00:00Z,26.1914,-97.0507,1016.25,11111222 
TABS,ioos:station:wmo:42044:1,2019-11-10T22:00:00Z,26.1914,-97.0507,1015.86,11111222 
TABS,ioos:station:wmo:42044:1,2019-11-10T23:00:00Z,26.1914,-97.0507,1015.54,11111222 
TABS,ioos:station:wmo:42044:1,2019-11-10T23:30:00Z,26.1914,-97.0507,1015.31,11111222 
TABS,ioos:station:wmo:42044:1,2019-11-11T04:30:00Z,26.1914,-97.0507,1015.98,11111222 
TABS,ioos:station:wmo:42044:1,2019-11-11T05:30:00Z,26.1914,-97.0507,1015.31,11111222 
TABS,ioos:station:wmo:42044:1,2019-11-11T06:30:00Z,26.1914,-97.0507,1014.44,11111222 
TABS,ioos:station:wmo:42044:1,2019-11-11T07:30:00Z,26.1914,-97.0507,1014.31,11111222 
TABS,ioos:station:wmo:42044:1,2019-11-11T08:30:00Z,26.1914,-97.0507,1013.72,11111222 
TABS,ioos:station:wmo:42044:1,2019-11-11T09:30:00Z,26.1914,-97.0507,1013.27,11111222 
TABS,ioos:station:wmo:42044:1,2019-11-11T10:30:00Z,26.1914,-97.0507,1012.95,11111222 
TABS,ioos:station:wmo:42044:1,2019-11-11T11:30:00Z,26.1914,-97.0507,1013.04,11111222 
TABS,ioos:station:wmo:42044:1,2019-11-11T13:30:00Z,26.1914,-97.0507,1014.04,11111222 
TABS,ioos:station:wmo:42044:1,2019-11-11T14:30:00Z,26.1914,-97.0507,1014.76,11111222 
TABS,ioos:station:wmo:42044:1,2019-11-11T15:30:00Z,26.1914,-97.0507,1015.13,11111222 
TABS,ioos:station:wmo:42044:1,2019-11-11T16:30:00Z,26.1914,-97.0507,1014.45,11111222 
TABS,ioos:station:wmo:42044:1,2019-11-11T17:30:00Z,26.1914,-97.0507,1013.78,11111222 
TABS,ioos:station:wmo:42044:1,2019-11-11T18:30:00Z,26.1914,-97.0507,1013.34,11111222 
TABS,ioos:station:wmo:42044:1,2019-11-11T19:30:00Z,26.1914,-97.0507,1012.38,11111222 
TABS,ioos:station:wmo:42044:1,2019-11-11T20:30:00Z,26.1914,-97.0507,1012.36,11111222 
TABS,ioos:station:wmo:42044:1,2019-11-11T22:00:00Z,26.1914,-97.0507,1012.73,11111222 
TABS,ioos:station:wmo:42044:1,2019-11-11T23:00:00Z,26.1914,-97.0507,1013.41,11111222 
TABS,ioos:station:wmo:42044:1,2019-11-11T23:30:00Z,26.1914,-97.0507,1014.28,11111222 
TABS,ioos:station:wmo:42044:1,2019-11-12T05:00:00Z,26.1914,-97.0507,1022.17,11111222 
TABS,ioos:station:wmo:42044:1,2019-11-12T07:00:00Z,26.1914,-97.0507,1022.92,11111222 
TABS,ioos:station:wmo:42044:1,2019-11-12T08:30:00Z,26.1914,-97.0507,1024.85,11111222 
TABS,ioos:station:wmo:42044:1,2019-11-12T10:00:00Z,26.1914,-97.0507,1023.44,11111222 
TABS,ioos:station:wmo:42044:1,2019-11-12T11:00:00Z,26.1914,-97.0507,1025.95,11111222 
TABS,ioos:station:wmo:42044:1,2019-11-12T12:00:00Z,26.1914,-97.0507,1021.38,11111222 
TABS,ioos:station:wmo:42044:1,2019-11-12T13:00:00Z,26.1914,-97.0507,1023.15,11111222 
TABS,ioos:station:wmo:42044:1,2019-11-12T13:30:00Z,26.1914,-97.0507,1022.03,11111222 
TABS,ioos:station:wmo:42044:1,2019-11-12T15:00:00Z,26.1914,-97.0507,1029.19,11111222 
TABS,ioos:station:wmo:42044:1,2019-11-12T16:00:00Z,26.1914,-97.0507,1029.11,11111222 
TABS,ioos:station:wmo:42044:1,2019-11-12T17:00:00Z,26.1914,-97.0507,1027.3,11111222 
TABS,ioos:station:wmo:42044:1,2019-11-12T18:00:00Z,26.1914,-97.0507,1026.75,11111222 
TABS,ioos:station:wmo:42044:1,2019-11-12T20:00:00Z,26.1914,-97.0507,1030.32,11111222 
TABS,ioos:station:wmo:42044:1,2019-11-12T21:30:00Z,26.1914,-97.0507,1030.4,11111222 
TABS,ioos:station:wmo:42044:1,2019-11-12T23:30:00Z,26.1914,-97.0507,1028.44,11111222 
TABS,ioos:station:wmo:42044:1,2019-11-13T05:00:00Z,26.1914,-97.0507,1029.51,11111222 
TABS,ioos:station:wmo:42044:1,2019-11-13T06:00:00Z,26.1914,-97.0507,1028.27,11111222 
TABS,ioos:station:wmo:42044:1,2019-11-13T06:30:00Z,26.1914,-97.0507,1027.4,11111222 
TABS,ioos:station:wmo:42044:1,2019-11-13T08:00:00Z,26.1914,-97.0507,1026.74,11111222 
TABS,ioos:station:wmo:42044:1,2019-11-13T09:30:00Z,26.1914,-97.0507,1025.23,11111222 
TABS,ioos:station:wmo:42044:1,2019-11-13T11:00:00Z,26.1914,-97.0507,1024.68,11111222 
TABS,ioos:station:wmo:42044:1,2019-11-13T12:00:00Z,26.1914,-97.0507,1024.51,11111222 
TABS,ioos:station:wmo:42044:1,2019-11-13T13:00:00Z,26.1914,-97.0507,1024.67,11111222 
TABS,ioos:station:wmo:42044:1,2019-11-13T14:00:00Z,26.1914,-97.0507,1025.12,11111222 
TABS,ioos:station:wmo:42044:1,2019-11-13T15:00:00Z,26.1914,-97.0507,1025.17,11111222 
TABS,ioos:station:wmo:42044:1,2019-11-13T16:00:00Z,26.1914,-97.0507,1024.76,11111222 
TABS,ioos:station:wmo:42044:1,2019-11-13T17:00:00Z,26.1914,-97.0507,1024.51,11111222 
TABS,ioos:station:wmo:42044:1,2019-11-13T18:00:00Z,26.1914,-97.0507,1023.07,11111222 
TABS,ioos:station:wmo:42044:1,2019-11-13T19:00:00Z,26.1914,-97.0507,1021.59,11111222 
TABS,ioos:station:wmo:42044:1,2019-11-13T20:00:00Z,26.1914,-97.0507,1020.18,11111222 
TABS,ioos:station:wmo:42044:1,2019-11-13T21:00:00Z,26.1914,-97.0507,1020.43,11111222 
TABS,ioos:station:wmo:42044:1,2019-11-13T22:00:00Z,26.1914,-97.0507,1019.58,11111222 
TABS,ioos:station:wmo:42044:1,2019-11-13T22:30:00Z,26.1914,-97.0507,1019.99,11111222 
TABS,ioos:station:wmo:42044:1,2019-11-13T23:30:00Z,26.1914,-97.0507,1019.69,11111222 
TABS,ioos:station:wmo:42044:1,2019-11-14T05:00:00Z,26.1914,-97.0507,1019.02,11111222 
TABS,ioos:station:wmo:42044:1,2019-11-14T06:00:00Z,26.1914,-97.0507,1018.93,11111222 
TABS,ioos:station:wmo:42044:1,2019-11-14T07:00:00Z,26.1914,-97.0507,1018.84,11111222 
TABS,ioos:station:wmo:42044:1,2019-11-14T08:00:00Z,26.1914,-97.0507,1018.2,11111222 
TABS,ioos:station:wmo:42044:1,2019-11-14T09:00:00Z,26.1914,-97.0507,1017.72,11111222 
TABS,ioos:station:wmo:42044:1,2019-11-14T09:30:00Z,26.1914,-97.0507,1018.76,11111222 
TABS,ioos:station:wmo:42044:1,2019-11-14T11:00:00Z,26.1914,-97.0507,1018.82,11111222 
TABS,ioos:station:wmo:42044:1,2019-11-14T12:00:00Z,26.1914,-97.0507,1018.67,11111222 
TABS,ioos:station:wmo:42044:1,2019-11-14T13:00:00Z,26.1914,-97.0507,1019.11,11111222 
TABS,ioos:station:wmo:42044:1,2019-11-14T15:00:00Z,26.1914,-97.0507,1020.46,11111222 
TABS,ioos:station:wmo:42044:1,2019-11-14T16:00:00Z,26.1914,-97.0507,1020.95,11111222 
TABS,ioos:station:wmo:42044:1,2019-11-14T17:00:00Z,26.1914,-97.0507,1020.87,11111222 
TABS,ioos:station:wmo:42044:1,2019-11-14T17:30:00Z,26.1914,-97.0507,1021.57,11111222 
TABS,ioos:station:wmo:42044:1,2019-11-14T19:00:00Z,26.1914,-97.0507,1020.51,11111222 
TABS,ioos:station:wmo:42044:1,2019-11-14T20:00:00Z,26.1914,-97.0507,1020.22,11111222 
TABS,ioos:station:wmo:42044:1,2019-11-14T21:00:00Z,26.1914,-97.0507,1020.19,11111222 
TABS,ioos:station:wmo:42044:1,2019-11-14T22:00:00Z,26.1914,-97.0507,1020.82,11111222 
TABS,ioos:station:wmo:42044:1,2019-11-14T23:00:00Z,26.1914,-97.0507,1021.58,11111222 
TABS,ioos:station:wmo:42044:1,2019-11-14T23:30:00Z,26.1914,-97.0507,1022.63,11111222 
TABS,ioos:station:wmo:42044:1,2019-11-15T04:30:00Z,26.1914,-97.0507,1025.3,11111222 
TABS,ioos:station:wmo:42044:1,2019-11-15T05:30:00Z,26.1914,-97.0507,1025.61,11111222 
TABS,ioos:station:wmo:42044:1,2019-11-15T06:30:00Z,26.1914,-97.0507,1025.82,11111222 
TABS,ioos:station:wmo:42044:1,2019-11-15T07:30:00Z,26.1914,-97.0507,1025.35,11111222 
TABS,ioos:station:wmo:42044:1,2019-11-15T08:30:00Z,26.1914,-97.0507,1024.81,11111222 
TABS,ioos:station:wmo:42044:1,2019-11-15T10:00:00Z,26.1914,-97.0507,1026.37,11111222 
TABS,ioos:station:wmo:42044:1,2019-11-15T11:00:00Z,26.1914,-97.0507,1025.74,11111222 
TABS,ioos:station:wmo:42044:1,2019-11-15T11:30:00Z,26.1914,-97.0507,1026.1,11111222 
TABS,ioos:station:wmo:42044:1,2019-11-15T12:30:00Z,26.1914,-97.0507,1026.7,11111222 
TABS,ioos:station:wmo:42044:1,2019-11-15T13:30:00Z,26.1914,-97.0507,1026.7,11111222 
TABS,ioos:station:wmo:42044:1,2019-11-15T14:30:00Z,26.1914,-97.0507,1028.16,11111222 
TABS,ioos:station:wmo:42044:1,2019-11-15T15:30:00Z,26.1914,-97.0507,1028.27,11111222 
TABS,ioos:station:wmo:42044:1,2019-11-15T17:30:00Z,26.1914,-97.0507,1027.25,11111222 
TABS,ioos:station:wmo:42044:1,2019-11-15T19:00:00Z,26.1914,-97.0507,1026.12,11111222 
TABS,ioos:station:wmo:42044:1,2019-11-15T20:00:00Z,26.1914,-97.0507,1025.69,11111222 
TABS,ioos:station:wmo:42044:1,2019-11-15T21:00:00Z,26.1914,-97.0507,1024.64,11111222 
TABS,ioos:station:wmo:42044:1,2019-11-15T22:00:00Z,26.1914,-97.0507,1024.77,11111222 
TABS,ioos:station:wmo:42044:1,2019-11-15T23:00:00Z,26.1914,-97.0507,1024.59,11111222 
TABS,ioos:station:wmo:42044:1,2019-11-15T23:30:00Z,26.1914,-97.0507,1024.92,11111222 
TABS,ioos:station:wmo:42044:1,2019-11-16T05:00:00Z,26.1914,-97.0507,1024.66,11111222 
TABS,ioos:station:wmo:42044:1,2019-11-16T06:00:00Z,26.1914,-97.0507,1024.35,11111222 
TABS,ioos:station:wmo:42044:1,2019-11-16T06:30:00Z,26.1914,-97.0507,1024.02,11111222 
TABS,ioos:station:wmo:42044:1,2019-11-16T08:00:00Z,26.1914,-97.0507,1023.51,11111222 
TABS,ioos:station:wmo:42044:1,2019-11-16T09:00:00Z,26.1914,-97.0507,1023.1,11111222 
TABS,ioos:station:wmo:42044:1,2019-11-16T09:30:00Z,26.1914,-97.0507,1023.18,11111222 
TABS,ioos:station:wmo:42044:1,2019-11-16T11:00:00Z,26.1914,-97.0507,1022.85,11111222 
TABS,ioos:station:wmo:42044:1,2019-11-16T12:00:00Z,26.1914,-97.0507,1022.64,11111222 
TABS,ioos:station:wmo:42044:1,2019-11-16T13:00:00Z,26.1914,-97.0507,1023.15,11111222 
TABS,ioos:station:wmo:42044:1,2019-11-16T14:30:00Z,26.1914,-97.0507,1023.36,11111222 
TABS,ioos:station:wmo:42044:1,2019-11-16T15:30:00Z,26.1914,-97.0507,1023.93,11111222 
TABS,ioos:station:wmo:42044:1,2019-11-16T18:00:00Z,26.1914,-97.0507,1022.17,11111222 